Vorticity
6 7 6 7 6 6 8 8 7 5 5 5 6 4 5 6 7 7 -2 16 22 -1 -7 8 14 14 12 13 11 11 10 6 7 13 15 -11 23 42 21 9 6 1 2 7 2
8 7 7 5 7 7 7 7 6 6 6 6 5 6 8 7 6 0 27 -2 3 14 14 11 12 15 16 13 15 11 4 13 16 -5 5 19 7 -4 4 15 12 11 5 3 4
8 8 7 6 5 5 6 6 6 6 7 6 7 9 9 6 10 21 -0 18 9 2 2 4 12 13 16 17 12 12 11 1 -16 -7 4 34 18 2 11 6 9 1 5 15 12
7 7 6 5 6 6 6 7 6 7 6 8 9 8 6 14 14 12 6 -3 1 16 13 12 16 18 18 16 31 15 11 12 19 -24 -13 1 24 11 9 11 14 5 10 3 18
5 6 6 5 7 6 5 7 8 7 9 9 8 9 13 16 12 2 -3 11 14 14 17 22 17 17 17 11 14 7 15 15 27 22 19 -1 -22 15 4 10 19 10 9 14 11
7 6 6 5 5 7 9 9 7 9 9 7 9 11 15 17 11 0 13 14 15 15 10 6 5 4 5 6 7 14 18 15 10 13 32 1 -10 -1 8 4 18 11 15 14 11
7 6 5 5 7 9 7 8 9 8 7 9 7 13 16 2 0 11 16 14 8 7 7 10 6 5 -0 11 13 -5 4 9 15 17 15 34 32 -9 -4 -2 4 21 12 15 12
7 7 7 7 7 11 9 7 8 7 9 7 15 18 18 0 9 14 10 10 11 6 4 5 3 5 12 13 12 4 16 20 7 10 20 31 14 36 1 9 -11 10 14 12 7
8 5 4 5 4 10 8 7 8 8 10 14 22 15 -2 4 9 15 9 8 10 10 9 15 14 15 9 11 14 27 -5 11 17 -5 23 25 20 20 32 7 6 8 12 13 7
4 6 3 8 6 11 9 8 8 15 4 20 12 29 -7 8 11 10 11 11 10 14 20 18 19 13 20 26 -3 -12 3 6 0 -5 -17 16 19 17 24 13 17 9 14 12 15
3 5 6 5 9 10 8 8 7 16 19 18 11 3 9 11 15 4 9 11 11 13 14 11 17 -6 11 18 12 12 15 11 9 18 32 6 22 14 12 39 18 6 8 10 11
4 1 4 4 10 8 8 8 9 4 22 19 -3 8 6 11 21 5 8 9 11 18 6 16 9 -0 11 14 12 -2 -1 8 12 24 18 14 27 25 20 3 14 7 10 13 9
3 8 8 9 10 8 7 10 9 12 38 7 -3 11 10 11 10 5 8 13 12 10 24 13 -10 -2 10 14 12 19 8 16 22 22 11 24 34 25 19 24 10 11 9 13 12
3 7 6 9 9 8 8 10 10 18 30 -14 1 3 5 13 -14 -1 9 10 20 7 26 15 10 12 28 36 35 16 1 5 14 10 11 25 24 23 14 3 14 7 6 11 -1
15 10 7 7 8 7 9 11 14 32 5 -6 -6 6 8 9 10 7 12 14 19 21 6 11 -4 17 23 14 13 -0 12 14 21 15 47 -17 3 42 18 -23 23 0 6 9 2
12 7 5 8 7 10 10 9 28 32 -5 30 1 10 12 9 9 12 6 14 10 32 -0 19 -11 23 29 11 9 9 12 18 8 3 9 19 15 14 22 17 19 14 9 6 8
8 3 6 8 10 10 12 15 34 15 -11 -7 4 13 7 9 -2 14 16 18 14 37 4 27 -6 28 -7 23 9 12 21 8 11 6 -2 15 -4 16 27 3 2 8 8 9 6
14 14 11 8 12 10 8 23 16 -16 18 15 12 9 7 7 1 13 25 -2 1 15 37 0 7 15 3 7 21 8 15 15 7 10 3 14 8 9 26 8 16 7 17 11 9
4 7 6 15 10 12 19 26 2 7 3 12 18 9 8 -3 22 17 13 -8 4 5 34 6 2 4 13 12 10 6 -6 20 18 8 8 14 7 4 25 21 16 8 1 10 25
8 8 12 4 10 11 11 18 9 13 14 13 14 4 3 -3 9 13 6 -2 6 5 13 -6 17 -4 26 24 3 11 3 9 6 8 11 7 -1 15 23 18 12 16 6 7 -1
8 8 5 13 11 17 7 11 14 13 13 12 4 10 3 2 10 13 -0 17 -3 9 9 -3 22 -13 13 -3 11 18 6 27 15 18 9 10 4 9 10 18 14 9 14 11 15
6 7 18 4 23 -1 7 12 15 11 12 9 11 2 5 5 12 19 6 5 11 8 4 -3 9 14 15 5 6 3 5 11 19 -10 8 13 5 8 15 6 11 18 9 9 5
1 12 -6 10 16 2 11 8 9 12 12 3 4 9 8 4 25 4 -6 5 -8 18 -1 8 -11 11 24 10 -15 8 15 11 22 14 2 15 7 10 13 13 4 8 12 10 6
4 -10 14 31 -5 10 10 14 10 11 14 10 4 9 1 6 5 -2 10 4 27 28 -1 20 7 1 -4 -6 3 2 11 18 10 14 4 18 8 14 18 19 9 10 12 9 12
12 16 3 -8 12 11 13 13 12 11 14 10 3 5 4 9 18 -10 8 16 23 2 8 12 15 3 20 13 8 13 10 9 17 9 20 12 12 11 12 14 18 15 15 17 12
12 -2 16 1 16 8 11 4 13 13 12 10 8 4 4 4 4 6 8 14 17 9 14 11 9 12 22 5 9 6 15 4 6 10 8 7 5 11 8 12 14 14 15 14 15
7 -5 15 3 11 15 11 7 3 11 20 11 10 4 7 8 7 10 17 14 13 11 7 10 14 10 13 -1 16 20 2 14 6 9 3 -1 16 4 4 5 8 9 13 15 16
Height
3146 3143 3141 3138 3135 3132 3130 3127 3125 3122 3119 3116 3112 3108 3103 3098 3097 3094 3091 3089 3086 3085 3084 3083 3080 3079 3080 3079 3078 3078 3076 3066 3066 3068 3074 3077 3077 3079 3084 3085 3088 3090 3092 3095 3099
3145 3143 3139 3136 3133 3130 3127 3124 3121 3118 3115 3112 3107 3104 3099 3093 3091 3087 3084 3082 3081 3077 3075 3073 3072 3071 3071 3071 3072 3070 3063 3063 3064 3065 3066 3070 3072 3074 3076 3077 3079 3084 3087 3090 3095
3145 3142 3138 3135 3131 3128 3124 3121 3117 3114 3110 3107 3103 3099 3095 3089 3085 3081 3079 3076 3073 3070 3067 3064 3062 3061 3063 3064 3064 3062 3054 3061 3060 3062 3062 3061 3065 3067 3068 3072 3074 3076 3079 3084 3089
3143 3141 3138 3134 3129 3126 3122 3118 3114 3110 3106 3102 3098 3094 3089 3084 3084 3077 3074 3072 3068 3064 3060 3057 3055 3054 3053 3053 3057 3052 3052 3053 3050 3053 3054 3055 3055 3056 3058 3061 3066 3069 3072 3076 3081
3142 3140 3137 3133 3128 3123 3119 3115 3110 3105 3101 3097 3093 3089 3083 3079 3076 3073 3071 3067 3062 3057 3055 3052 3050 3048 3047 3047 3046 3044 3045 3044 3043 3043 3044 3046 3048 3048 3049 3055 3058 3061 3065 3069 3074
3142 3139 3136 3132 3127 3121 3116 3111 3107 3101 3097 3092 3088 3083 3079 3076 3070 3068 3065 3060 3056 3053 3052 3049 3047 3045 3043 3041 3040 3038 3037 3036 3034 3034 3035 3037 3036 3040 3043 3049 3051 3055 3059 3063 3066
3141 3138 3135 3130 3125 3119 3114 3109 3104 3098 3094 3089 3083 3079 3075 3074 3069 3065 3060 3056 3053 3049 3048 3047 3045 3042 3040 3037 3035 3033 3031 3028 3026 3027 3026 3029 3026 3024 3036 3043 3046 3049 3053 3057 3061
3139 3136 3132 3128 3123 3117 3111 3105 3101 3095 3089 3084 3079 3074 3071 3069 3065 3060 3057 3055 3050 3047 3044 3042 3039 3038 3036 3034 3031 3029 3027 3020 3018 3021 3020 3022 3013 3020 3033 3036 3041 3044 3048 3053 3057
3137 3133 3129 3125 3121 3115 3108 3102 3098 3093 3087 3081 3077 3073 3070 3067 3064 3060 3054 3050 3049 3045 3040 3037 3035 3034 3032 3030 3027 3024 3020 3016 3012 3015 3015 3016 3008 3014 3022 3030 3035 3038 3042 3048 3053
3134 3130 3126 3121 3117 3113 3106 3098 3093 3088 3085 3078 3074 3074 3071 3066 3060 3058 3053 3048 3043 3040 3036 3033 3031 3030 3027 3026 3023 3019 3016 3013 3011 3011 3011 3008 3005 3008 3014 3022 3029 3034 3038 3043 3048
3132 3127 3123 3117 3112 3108 3105 3099 3096 3085 3079 3076 3074 3073 3069 3065 3058 3056 3051 3047 3042 3036 3033 3030 3029 3027 3024 3021 3018 3015 3012 3009 3006 3007 3003 3002 3000 3002 3011 3016 3024 3030 3034 3038 3045
3129 3124 3119 3115 3109 3103 3098 3094 3089 3087 3077 3073 3071 3068 3065 3060 3057 3054 3050 3046 3040 3035 3031 3029 3026 3025 3021 3017 3014 3011 3008 3005 3002 3001 2999 2997 2995 2998 3005 3012 3019 3025 3031 3035 3041
3127 3122 3115 3111 3107 3102 3096 3091 3085 3079 3075 3072 3070 3067 3063 3060 3055 3051 3048 3043 3038 3035 3030 3027 3026 3022 3018 3012 3009 3007 3006 3003 3000 2996 2995 2994 2994 2996 3002 3008 3016 3023 3029 3034 3039
3123 3119 3114 3108 3106 3098 3093 3088 3083 3077 3072 3074 3070 3065 3062 3060 3057 3052 3047 3043 3038 3034 3030 3027 3025 3020 3014 3007 3004 3005 3004 3001 2997 2994 2989 2989 2993 2995 3001 3006 3013 3021 3026 3032 3035
3119 3114 3110 3104 3101 3097 3092 3085 3080 3074 3076 3074 3069 3066 3061 3059 3057 3053 3047 3043 3037 3034 3032 3029 3023 3017 3013 3009 3006 3005 3002 2999 2996 2992 2988 2987 2989 2996 3001 3006 3013 3020 3025 3030 3034
3115 3111 3107 3103 3099 3094 3088 3083 3078 3076 3073 3074 3070 3066 3065 3060 3057 3053 3047 3043 3036 3031 3030 3026 3023 3019 3014 3010 3007 3005 3001 2999 2996 2994 2992 2992 2993 2999 2998 3006 3012 3019 3024 3029 3034
3112 3108 3104 3100 3097 3091 3086 3082 3079 3075 3078 3074 3069 3066 3063 3060 3057 3053 3048 3042 3038 3033 3029 3026 3023 3020 3016 3011 3008 3005 3002 3000 3000 3000 2999 2995 2996 3000 3003 3008 3012 3018 3024 3029 3034
3109 3105 3102 3098 3093 3089 3085 3082 3078 3078 3075 3072 3069 3067 3065 3062 3059 3054 3051 3047 3044 3039 3034 3029 3024 3021 3019 3015 3012 3008 3006 3006 3007 3004 3001 2999 3002 3005 3006 3011 3016 3020 3024 3029 3033
3106 3103 3099 3095 3091 3088 3086 3084 3082 3078 3074 3071 3068 3065 3064 3062 3059 3056 3053 3049 3046 3042 3041 3034 3026 3024 3020 3017 3016 3011 3009 3008 3005 3004 3004 3006 3008 3009 3008 3011 3015 3020 3025 3029 3032
3105 3101 3098 3094 3090 3087 3085 3083 3080 3077 3073 3071 3069 3068 3065 3063 3060 3056 3053 3051 3049 3046 3043 3039 3030 3024 3021 3019 3017 3014 3013 3010 3007 3006 3007 3008 3009 3011 3010 3011 3015 3020 3024 3028 3032
3102 3098 3096 3092 3089 3086 3083 3082 3078 3075 3073 3072 3070 3068 3066 3063 3060 3057 3056 3052 3049 3046 3043 3039 3036 3028 3024 3022 3020 3017 3015 3013 3012 3010 3011 3009 3012 3012 3012 3013 3015 3019 3022 3027 3031
3099 3097 3094 3090 3089 3084 3082 3079 3078 3074 3073 3072 3069 3067 3065 3063 3060 3057 3056 3053 3050 3046 3042 3039 3036 3029 3026 3025 3024 3023 3020 3018 3017 3016 3013 3012 3017 3015 3014 3015 3017 3019 3022 3026 3030
3097 3095 3093 3090 3086 3083 3081 3080 3077 3074 3073 3072 3071 3068 3066 3064 3062 3057 3055 3053 3050 3047 3043 3041 3038 3032 3026 3028 3025 3024 3023 3021 3018 3017 3016 3016 3018 3016 3016 3017 3019 3021 3023 3026 3029
3095 3091 3090 3087 3085 3083 3079 3077 3077 3074 3073 3071 3070 3068 3066 3063 3061 3058 3055 3052 3048 3046 3044 3041 3039 3038 3038 3035 3031 3026 3024 3022 3020 3019 3019 3019 3019 3018 3018 3019 3020 3022 3024 3026 3028
3093 3089 3088 3086 3082 3081 3079 3075 3074 3073 3071 3071 3069 3068 3066 3063 3060 3057 3054 3050 3047 3045 3043 3041 3038 3037 3035 3033 3031 3028 3025 3023 3022 3021 3020 3021 3020 3020 3019 3019 3021 3022 3023 3025 3027
3088 3088 3084 3082 3079 3077 3075 3074 3071 3070 3069 3068 3068 3066 3064 3062 3060 3055 3052 3049 3046 3045 3042 3040 3038 3035 3033 3032 3030 3028 3026 3024 3023 3022 3023 3022 3023 3023 3023 3023 3022 3023 3024 3025 3026
3084 3084 3082 3081 3076 3074 3073 3071 3069 3068 3066 3063 3063 3063 3062 3061 3058 3054 3051 3048 3046 3044 3042 3040 3037 3034 3032 3031 3029 3029 3027 3025 3024 3024 3024 3024 3025 3025 3026 3026 3026 3026 3027 3028 3027